DW7013 Weather Reports


Display with metric or nautical units.
time (UTC)temp
F
wind
direction
speed
MPH
gust
MPH
rain 1hr
in
rain 24hr
in
rain mn
in
humidity
%
barometer
mb
20260831103220 65 52 3.0 19.0 0.00 0.31 0.31 63 1020.6
20260831102727 65 113 4.0 19.0 0.00 0.31 0.31 64 1020.6
20260831101711 66 75 6.0 22.0 0.00 0.31 0.31 62 1020.5
20260831100722 66 326 3.0 22.0 0.00 0.31 0.31 62 1020.7
20260831100211 65 119 5.0 16.0 0.00 0.31 0.31 64 1020.4
20260831095719 65 108 6.0 16.0 0.00 0.31 0.31 64 1020.5
20260831095232 65 165 5.0 11.0 0.00 0.31 0.31 67 1020.4
20260831094725 65 132 4.0 11.0 0.00 0.31 0.31 68 1020.5
20260831094228 64 171 4.0 11.0 0.00 0.31 0.31 70 1020.5
20260831093709 63 107 5.0 11.0 0.00 0.31 0.31 72 1020.6
20260831092213 62 163 3.0 12.0 0.00 0.31 0.31 72 1020.6
20260831091726 62 167 4.0 12.0 0.00 0.31 0.31 72 1020.6
20260831090717 61 142 4.0 12.0 0.00 0.31 0.31 73 1020.5
20260831090226 61 197 4.0 10.0 0.00 0.31 0.31 74 1020.5
20260831085726 61 182 5.0 10.0 0.00 0.31 0.31 73 1020.5
20260831084225 61 140 2.0 11.0 0.00 0.31 0.31 75 1020.3
20260831083725 61 100 2.0 11.0 0.00 0.31 0.31 74 1020.3
20260831083216 61 122 2.0 9.0 0.00 0.31 0.31 75 1020.1
20260831082729 60 152 2.0 9.0 0.00 0.31 0.31 76 1020.1
20260831082220 60 165 4.0 9.0 0.00 0.31 0.31 77 1020.1
20260831081231 60 171 4.0 10.0 0.00 0.31 0.31 77 1020.1
20260831080720 60 119 3.0 10.0 0.00 0.31 0.31 79 1020.1
20260831080217 59 65 2.0 8.0 0.00 0.31 0.31 78 1020.1
20260831075716 59 152 2.0 8.0 0.00 0.31 0.31 79 1020.0
20260831075210 59 157 3.0 10.0 0.00 0.31 0.31 79 1020.0
20260831074727 59 182 3.0 10.0 0.00 0.31 0.31 78 1020.0
20260831074208 59 190 3.0 12.0 0.00 0.31 0.31 78 1019.9
20260831073708 59 136 4.0 12.0 0.00 0.31 0.31 78 1019.9
20260831072729 58 174 4.0 12.0 0.00 0.31 0.31 79 1019.8
20260831071725 58 157 4.0 9.0 0.00 0.31 0.31 79 1019.8
20260831071218 58 171 4.0 11.0 0.00 0.31 0.31 80 1019.7
20260831070715 58 188 4.0 11.0 0.00 0.31 0.31 81 1019.7
20260831065721 58 139 4.0 11.0 0.00 0.31 0.31 81 1019.7
20260831065212 58 180 3.0 9.0 0.00 0.31 0.31 81 1019.7
20260831064224 58 169 2.0 8.0 0.00 0.31 0.31 80 1019.6
20260831063720 58 141 2.0 8.0 0.00 0.31 0.31 79 1019.6
20260831063226 58 124 2.0 7.0 0.00 0.31 0.31 79 1019.5
20260831062720 58 174 1.0 7.0 0.00 0.31 0.31 78 1019.5
20260831062235 58 156 1.0 8.0 0.00 0.31 0.31 79 1019.5
20260831061706 58 134 2.0 8.0 0.00 0.31 0.31 79 1019.5
20260831061220 58 186 2.0 7.0 0.00 0.31 0.31 77 1019.4
20260831060725 58 127 2.0 7.0 0.00 0.31 0.31 79 1019.3
20260831060226 58 117 1.0 13.0 0.00 0.31 0.31 78 1019.4
20260831055727 58 157 1.0 13.0 0.00 0.31 0.31 78 1019.5
20260831055215 58 152 2.0 13.0 0.00 0.31 0.31 79 1019.3
20260831054714 58 123 2.0 13.0 0.00 0.31 0.31 79 1019.5
20260831054223 59 52 1.0 11.0 0.00 0.31 0.31 80 1019.4
20260831053712 59 348 1.0 11.0 0.00 0.31 0.31 80 1019.3
20260831053214 59 122 2.0 7.0 0.00 0.31 0.31 81 1019.5
20260831052717 59 148 1.0 7.0 0.00 0.31 0.31 82 1019.3
20260831052229 58 71 2.0 16.0 0.00 0.31 0.31 84 1019.3
20260831051716 59 113 4.0 16.0 0.00 0.31 0.31 84 1019.2
20260831051218 59 107 4.0 13.0 0.00 0.31 0.31 85 1019.4
20260831050722 59 119 4.0 13.0 0.00 0.31 0.31 84 1019.3
20260831045724 59 150 4.0 10.0 0.00 0.31 0.31 84 1019.2
20260831045215 59 92 3.0 9.0 0.00 0.31 0.31 85 1019.1
20260831044727 59 167 3.0 9.0 0.00 0.31 0.31 85 1019.1
20260831044218 59 142 3.0 9.0 0.00 0.31 0.31 86 1019.0
20260831043719 59 136 2.0 9.0 0.00 0.31 0.31 86 1019.0
20260831043215 59 173 2.0 9.0 0.00 0.31 0.31 86 1019.0
20260831042733 60 119 2.0 9.0 0.00 0.31 0.31 86 1018.8
20260831042222 60 132 2.0 3.0 0.00 0.31 0.31 86 1018.8
20260831041706 60 124 1.0 3.0 0.00 0.31 0.31 85 1018.8
20260831041223 60 180 0.0 6.0 0.00 0.31 0.31 85 1018.7
20260831040220 60 142 0.0 10.0 0.00 0.31 0.31 85 1018.7
20260831035727 60 178 1.0 10.0 0.00 0.31 0.31 86 1018.6
20260831035226 59 69 2.0 11.0 0.00 0.31 0.31 86 1018.6
20260831034720 59 345 2.0 11.0 0.00 0.31 0.31 86 1018.7
20260831034230 59 75 2.0 12.0 0.00 0.31 0.31 86 1018.7
20260831033711 59 319 2.0 12.0 0.00 0.31 0.31 86 1018.7
20260831033230 59 96 2.0 16.0 0.00 0.31 0.31 86 1018.6
20260831032712 59 99 3.0 16.0 0.00 0.31 0.31 86 1018.7
20260831032214 59 73 3.0 16.0 0.00 0.31 0.31 87 1018.8
20260831031723 59 41 4.0 16.0 0.00 0.31 0.31 87 1018.7
20260831031216 59 173 4.0 12.0 0.00 0.31 0.31 87 1019.0
20260831030720 60 328 1.0 12.0 0.00 0.31 0.31 87 1018.8
20260831030227 60 140 2.0 13.0 0.00 0.31 0.31 88 1018.7
20260831025717 59 109 2.0 13.0 0.00 0.31 0.31 89 1018.6
20260831024722 59 76 2.0 10.0 0.00 0.31 0.31 90 1018.6
20260831024216 59 117 2.0 9.0 0.00 0.31 0.31 91 1018.6
20260831023714 59 78 3.0 9.0 0.00 0.31 0.31 92 1018.5
20260831023224 59 112 4.0 9.0 0.00 0.31 0.31 91 1018.3
20260831022729 59 136 3.0 9.0 0.00 0.31 0.31 92 1018.4
20260831022223 59 97 3.0 8.0 0.00 0.31 0.31 92 1018.3
20260831021726 59 157 3.0 8.0 0.00 0.31 0.31 92 1018.3
20260831021220 59 140 2.0 8.0 0.00 0.31 0.31 91 1018.2
20260831020719 59 145 1.0 8.0 0.00 0.31 0.31 91 1018.2
20260831020215 59 126 1.0 6.0 0.00 0.31 0.31 91 1018.2
20260831015724 59 159 1.0 6.0 0.00 0.31 0.31 91 1018.2
20260831015220 59 99 0.0 6.0 0.00 0.31 0.31 91 1018.2
20260831014710 59 148 1.0 6.0 0.00 0.31 0.31 91 1018.1
20260831014213 59 144 1.0 10.0 0.00 0.32 0.31 91 1018.2
20260831013718 59 87 3.0 10.0 0.00 0.32 0.31 91 1018.2
20260831013218 59 145 4.0 9.0 0.00 0.32 0.31 91 1018.2
20260831012729 59 106 4.0 9.0 0.00 0.32 0.31 91 1018.4
20260831012222 58 133 3.0 9.0 0.00 0.32 0.31 90 1018.3
20260831011719 58 153 3.0 9.0 0.00 0.32 0.31 90 1018.4
20260831011220 59 119 3.0 9.0 0.00 0.32 0.31 90 1018.3
20260831010729 58 117 2.0 9.0 0.00 0.32 0.31 89 1018.2
20260831010217 59 137 2.0 12.0 0.00 0.32 0.31 89 1018.2
20260831005217 59 162 4.0 11.0 0.00 0.32 0.31 89 1018.2
20260831004229 59 135 1.0 5.0 0.01 0.32 0.31 90 1018.2
20260831003716 59 84 0.0 5.0 0.01 0.32 0.31 90 1018.2
20260831003221 59 103 1.0 6.0 0.02 0.32 0.31 90 1018.3
20260831002713 59 93 1.0 6.0 0.05 0.32 0.31 90 1018.3
20260831001748 60 105 0.0 0.0 0.06 0.32 0.31 90 1018.5
20260831001221 60 110 0.0 5.0 0.06 0.32 0.31 90 1018.3
20260831000708 60 109 0.0 10.0 0.06 0.32 0.31 90 1018.4
20260831000211 60 165 1.0 10.0 0.07 0.32 0.31 90 1018.6
20260830235730 60 114 2.0 10.0 0.07 0.32 0.31 89 1018.7
20260830235230 60 188 2.0 18.0 0.06 0.31 0.31 89 1018.6
20260830234722 60 150 1.0 18.0 0.06 0.32 0.31 88 1018.7
20260830234221 60 10 3.0 18.0 0.06 0.32 0.31 87 1018.6
20260830233731 61 250 5.0 18.0 0.06 0.31 0.30 88 1018.6
20260830233226 61 18 4.0 19.0 0.09 0.31 0.28 89 1018.7
20260830232716 60 65 5.0 19.0 0.16 0.27 0.25 90 1018.6
20260830232216 61 338 5.0 8.0 0.25 0.27 0.25 90 1018.1
20260830231726 60 17 1.0 8.0 0.25 0.27 0.25 91 1018.3
20260830231219 61 338 0.0 0.0 0.25 0.27 0.25 90 1017.9
20260830230224 61 316 0.0 0.0 0.24 0.26 0.24 89 1017.7
20260830225720 61 144 0.0 0.0 0.24 0.26 0.24 89 1017.4
20260830225226 61 128 0.0 5.0 0.24 0.26 0.24 88 1017.8
20260830224718 62 141 0.0 5.0 0.24 0.26 0.24 88 1018.1
20260830224216 62 130 0.0 30.0 0.24 0.26 0.24 87 1018.1
20260830223719 62 163 1.0 30.0 0.24 0.24 0.22 86 1018.1
20260830223210 62 19 8.0 30.0 0.17 0.19 0.17 85 1018.4
20260830222223 62 68 1.0 0.0 0.00 0.02 0.00 79 1017.8
20260830221223 62 0 0.0 0.0 0.00 0.03 0.00 79 1016.8
20260830220722 62 51 0.0 0.0 0.00 0.03 0.00 78 1016.9
20260830220206 62 51 0.0 0.0 0.00 0.03 0.03 78 1017.0
20260830215222 62 51 0.0 0.0 0.00 0.03 0.03 78 1016.9
20260830214715 62 51 0.0 0.0 0.00 0.03 0.03 78 1016.9
20260830214212 62 51 0.0 0.0 0.00 0.03 0.03 78 1016.9
20260830213231 62 50 0.0 0.0 0.00 0.03 0.03 77 1017.1
20260830212722 62 50 0.0 0.0 0.00 0.03 0.03 77 1017.1
20260830212220 62 327 0.0 0.0 0.00 0.03 0.03 78 1017.2
20260830211727 62 355 0.0 0.0 0.00 0.03 0.03 78 1017.2
20260830211216 63 355 0.0 0.0 0.00 0.03 0.03 78 1017.3
20260830210726 63 355 0.0 0.0 0.00 0.03 0.03 77 1017.3
20260830210217 63 355 0.0 0.0 0.00 0.03 0.03 77 1017.3
20260830205727 63 355 0.0 0.0 0.00 0.03 0.03 77 1017.3
20260830205219 63 299 0.0 0.0 0.00 0.03 0.03 78 1017.3
20260830204717 63 299 0.0 0.0 0.00 0.03 0.03 77 1017.3
20260830204227 63 299 0.0 0.0 0.00 0.03 0.03 77 1017.3
20260830203714 63 299 0.0 0.0 0.00 0.03 0.03 77 1017.3
20260830203232 64 299 0.0 0.0 0.00 0.03 0.03 76 1017.4
20260830202725 64 299 0.0 0.0 0.00 0.03 0.03 76 1017.4
20260830201718 64 299 0.0 0.0 0.00 0.03 0.03 75 1017.4
20260830201227 64 299 0.0 0.0 0.00 0.03 0.03 75 1017.4
20260830200730 65 299 0.0 0.0 0.00 0.03 0.03 75 1017.4
20260830200221 65 299 0.0 0.0 0.00 0.03 0.03 75 1017.5
20260830195730 65 299 0.0 0.0 0.00 0.03 0.03 75 1017.5
20260830195216 65 299 0.0 0.0 0.00 0.03 0.03 75 1017.5
20260830194723 65 299 0.0 0.0 0.00 0.03 0.03 75 1017.5
20260830194212 65 49 0.0 0.0 0.00 0.03 0.03 75 1017.5
20260830193730 65 49 0.0 0.0 0.00 0.03 0.03 75 1017.5
20260830193228 66 49 0.0 0.0 0.00 0.03 0.03 75 1017.5
20260830192717 66 340 0.0 0.0 0.00 0.03 0.03 75 1017.5
20260830192214 66 340 0.0 0.0 0.00 0.03 0.03 74 1017.5
20260830191714 66 340 0.0 0.0 0.00 0.03 0.03 74 1017.5
20260830191227 66 340 0.0 0.0 0.00 0.03 0.03 74 1017.4
20260830190717 66 340 0.0 0.0 0.00 0.03 0.03 74 1017.4
20260830190220 66 340 0.0 0.0 0.00 0.03 0.03 73 1017.4
20260830185726 66 340 0.0 0.0 0.00 0.03 0.03 73 1017.3
20260830184727 67 340 0.0 0.0 0.00 0.03 0.03 73 1017.2
20260830184229 67 340 0.0 0.0 0.00 0.03 0.03 73 1017.2
20260830183727 67 340 0.0 0.0 0.00 0.03 0.03 73 1017.2
20260830183221 67 340 0.0 0.0 0.00 0.03 0.03 72 1017.1
20260830181718 68 342 0.0 0.0 0.00 0.03 0.03 70 1017.1
20260830181243 68 329 0.0 0.0 0.00 0.03 0.03 70 1017.2
20260830180721 68 11 0.0 0.0 0.00 0.03 0.03 68 1017.2
20260830180247 69 11 0.0 0.0 0.00 0.03 0.03 68 1017.4
20260830174724 69 321 0.0 0.0 0.00 0.03 0.03 66 1017.3
20260830174207 70 0 0.0 0.0 0.00 0.03 0.03 65 1017.3
20260830173716 70 329 0.0 0.0 0.00 0.03 0.03 64 1017.3
20260830173224 70 334 0.0 0.0 0.00 0.03 0.03 63 1017.3
20260830172718 71 305 0.0 0.0 0.00 0.03 0.03 63 1017.3
20260830172226 71 309 0.0 0.0 0.00 0.03 0.03 62 1017.3
20260830171720 71 54 0.0 0.0 0.00 0.03 0.03 59 1017.3
20260830171231 72 335 0.0 0.0 0.00 0.03 0.03 61 1017.4
20260830170214 73 122 0.0 0.0 0.00 0.03 0.03 57 1017.3
20260830165719 73 336 0.0 0.0 0.00 0.03 0.03 59 1017.3
20260830165229 74 355 0.0 8.0 0.00 0.03 0.03 55 1017.3
20260830164720 75 84 0.0 8.0 0.00 0.03 0.03 56 1017.3
20260830164214 75 335 1.0 10.0 0.00 0.03 0.03 52 1017.3
20260830163223 76 330 2.0 10.0 0.00 0.03 0.03 52 1017.3
20260830162722 76 345 2.0 10.0 0.00 0.03 0.03 52 1017.2
20260830162223 75 306 1.0 9.0 0.00 0.03 0.03 53 1017.3
20260830161719 75 26 1.0 10.0 0.00 0.03 0.03 54 1017.2
20260830161218 75 350 3.0 13.0 0.00 0.03 0.03 54 1017.2
20260830160713 75 23 3.0 13.0 0.00 0.03 0.03 52 1017.3
20260830155720 76 355 3.0 12.0 0.00 0.03 0.03 51 1017.3
20260830154714 76 10 4.0 12.0 0.00 0.03 0.03 52 1017.3
20260830154223 76 348 4.0 15.0 0.00 0.03 0.03 53 1017.4
20260830153716 76 318 4.0 15.0 0.00 0.03 0.03 53 1017.4
20260830153214 76 47 7.0 15.0 0.00 0.03 0.03 52 1017.5
20260830152759 76 333 7.0 15.0 0.00 0.03 0.03 52 1017.5
20260830152212 76 321 4.0 16.0 0.00 0.03 0.03 51 1017.5
20260830151731 76 5 1.0 16.0 0.00 0.03 0.03 52 1017.5
20260830151213 76 346 4.0 16.0 0.00 0.03 0.03 52 1017.5
20260830150725 76 293 8.0 16.0 0.00 0.03 0.03 53 1017.5
20260830150219 77 336 7.0 15.0 0.00 0.03 0.03 52 1017.7
20260830145731 77 335 6.0 15.0 0.00 0.03 0.03 52 1017.7
20260830144722 76 296 2.0 13.0 0.00 0.03 0.03 53 1017.5
20260830143724 75 78 3.0 14.0 0.00 0.03 0.03 55 1017.5
20260830143222 74 305 3.0 13.0 0.00 0.03 0.03 56 1017.7
20260830141716 73 344 7.0 13.0 0.00 0.03 0.03 56 1017.8
20260830141210 74 355 4.0 11.0 0.00 0.03 0.03 57 1017.8
20260830140739 73 355 3.0 11.0 0.00 0.03 0.03 57 1017.9
20260830140227 73 265 3.0 13.0 0.00 0.03 0.03 57 1018.0
20260830135721 74 340 5.0 13.0 0.00 0.03 0.03 58 1018.0
20260830135207 74 348 6.0 11.0 0.00 0.03 0.03 58 1018.1
20260830134715 74 248 4.0 11.0 0.00 0.03 0.03 58 1018.1
20260830134208 73 322 4.0 15.0 0.00 0.03 0.03 58 1018.1
20260830133718 73 271 5.0 15.0 0.00 0.03 0.03 59 1018.2
20260830133231 72 298 6.0 15.0 0.00 0.03 0.03 59 1018.3
20260830132720 72 293 6.0 15.0 0.00 0.03 0.03 58 1018.2
20260830131222 73 276 5.0 14.0 0.00 0.03 0.03 60 1018.4
20260830130730 72 28 7.0 14.0 0.00 0.03 0.03 61 1018.4
20260830130221 72 350 6.0 12.0 0.00 0.03 0.03 64 1018.5
20260830125717 72 274 3.0 12.0 0.00 0.03 0.03 64 1018.5
20260830125226 72 339 3.0 13.0 0.00 0.03 0.03 62 1018.4
20260830124714 72 265 5.0 13.0 0.00 0.03 0.03 65 1018.4
20260830123719 71 355 6.0 13.0 0.00 0.03 0.03 64 1018.4
20260830123223 71 302 5.0 12.0 0.00 0.03 0.03 65 1018.4
20260830122721 71 340 4.0 12.0 0.00 0.03 0.03 64 1018.4
20260830122215 71 337 3.0 12.0 0.00 0.03 0.03 66 1018.3
20260830121719 71 13 1.0 12.0 0.00 0.03 0.03 65 1018.4
20260830121224 71 333 1.0 9.0 0.00 0.03 0.03 67 1018.4
20260830120722 71 347 2.0 9.0 0.00 0.03 0.03 65 1018.4
20260830120218 71 63 3.0 8.0 0.00 0.03 0.03 66 1018.5
20260830115220 70 333 2.0 5.0 0.00 0.03 0.03 67 1018.5
20260830114732 70 328 1.0 5.0 0.00 0.03 0.03 68 1018.5
20260830114221 71 189 0.0 9.0 0.00 0.03 0.03 67 1018.4
20260830113216 69 198 1.0 8.0 0.00 0.03 0.03 69 1018.6
20260830112714 70 178 1.0 8.0 0.00 0.03 0.03 68 1018.6
20260830111722 68 31 2.0 9.0 0.00 0.03 0.03 74 1018.8
20260830111233 68 160 2.0 7.0 0.00 0.03 0.03 73 1018.8
20260830110718 67 54 2.0 7.0 0.00 0.03 0.03 73 1019.0
20260830110219 67 326 3.0 8.0 0.00 0.03 0.03 73 1019.1
20260830105710 67 121 2.0 8.0 0.00 0.03 0.03 75 1019.1
20260830105216 67 169 1.0 12.0 0.00 0.03 0.03 75 1019.0
20260830104724 67 157 2.0 12.0 0.00 0.03 0.03 74 1019.0
20260830104208 66 143 3.0 8.0 0.00 0.03 0.03 75 1019.1